Time,TemperatureF,DewpointF,PressureIn,WindDirection,WindDirectionDegrees,WindSpeedMPH,WindSpeedGustMPH,Humidity,HourlyPrecipIn,Conditions,Clouds,dailyrainin,SoftwareType,DateUTC
2013-08-15 00:00:00,79.7,76.5,29.85,WNW,297,1.0,4.0,90,0.00,,,0.00,VWS V14.01,2013-08-15 06:00:00,
2013-08-15 00:01:00,79.7,76.5,29.85,WSW,255,1.0,1.0,90,0.00,,,0.00,VWS V14.01,2013-08-15 06:01:00,
2013-08-15 00:06:00,79.6,76.4,29.85,WNW,295,1.0,4.0,90,0.00,,,0.00,VWS V14.01,2013-08-15 06:06:00,
2013-08-15 00:11:00,79.4,76.2,29.85,West,273,2.0,5.0,90,0.00,,,0.00,VWS V14.01,2013-08-15 06:11:00,
2013-08-15 00:16:00,79.3,76.1,29.84,WSW,245,1.0,5.0,90,0.00,,,0.00,VWS V14.01,2013-08-15 06:16:00,
2013-08-15 00:21:00,79.2,76.0,29.84,West,277,3.0,5.0,90,0.00,,,0.00,VWS V14.01,2013-08-15 06:21:00,
2013-08-15 00:26:00,79.1,75.9,29.84,WNW,288,0.0,5.0,90,0.00,,,0.00,VWS V14.01,2013-08-15 06:26:00,
2013-08-15 00:30:00,79.0,76.2,29.84,WSW,247,1.0,5.0,91,0.00,,,0.00,VWS V14.01,2013-08-15 06:30:00,
2013-08-15 00:31:00,79.0,76.2,29.84,West,281,1.0,2.0,91,0.00,,,0.00,VWS V14.01,2013-08-15 06:31:00,
2013-08-15 00:36:00,79.0,76.2,29.84,WNW,293,2.0,4.0,91,0.00,,,0.00,VWS V14.01,2013-08-15 06:36:00,
2013-08-15 00:41:00,79.0,76.2,29.83,West,273,1.0,4.0,91,0.00,,,0.00,VWS V14.01,2013-08-15 06:41:00,
2013-08-15 00:46:00,79.0,76.2,29.83,West,264,0.0,4.0,91,0.00,,,0.00,VWS V14.01,2013-08-15 06:46:00,
2013-08-15 00:51:00,79.1,76.2,29.83,WSW,252,0.0,4.0,91,0.00,,,0.00,VWS V14.01,2013-08-15 06:51:00,
2013-08-15 00:56:00,79.1,76.2,29.83,WSW,249,0.0,4.0,91,0.00,,,0.00,VWS V14.01,2013-08-15 06:56:00,
2013-08-15 01:00:00,79.2,76.3,29.83,West,270,0.0,4.0,91,0.00,,,0.00,VWS V14.01,2013-08-15 07:00:00,
2013-08-15 01:01:00,79.2,76.3,29.83,West,270,0.0,0.0,91,0.00,,,0.00,VWS V14.01,2013-08-15 07:01:00,
2013-08-15 01:06:00,79.2,76.3,29.83,West,274,1.0,1.0,91,0.00,,,0.00,VWS V14.01,2013-08-15 07:06:00,
2013-08-15 01:11:00,79.2,76.3,29.83,WSW,249,0.0,1.0,91,0.00,,,0.00,VWS V14.01,2013-08-15 07:11:00,
2013-08-15 01:16:00,79.3,76.4,29.83,SW,219,0.0,1.0,91,0.00,,,0.00,VWS V14.01,2013-08-15 07:16:00,
2013-08-15 01:21:00,79.4,76.6,29.83,SW,221,0.0,1.0,91,0.00,,,0.00,VWS V14.01,2013-08-15 07:21:00,
2013-08-15 01:26:00,79.4,76.6,29.82,SW,221,0.0,1.0,91,0.00,,,0.00,VWS V14.01,2013-08-15 07:26:00,
2013-08-15 01:30:00,79.4,76.6,29.82,West,280,0.0,1.0,91,0.00,,,0.00,VWS V14.01,2013-08-15 07:30:00,
2013-08-15 01:31:00,79.4,76.6,29.82,West,280,0.0,0.0,91,0.00,,,0.00,VWS V14.01,2013-08-15 07:31:00,
2013-08-15 01:36:00,79.3,76.4,29.82,West,280,0.0,1.0,91,0.00,,,0.00,VWS V14.01,2013-08-15 07:36:00,
2013-08-15 01:41:00,79.2,76.3,29.82,West,259,0.0,1.0,91,0.00,,,0.00,VWS V14.01,2013-08-15 07:41:00,
2013-08-15 01:46:00,79.3,76.4,29.82,West,263,0.0,1.0,91,0.00,,,0.00,VWS V14.01,2013-08-15 07:46:00,
2013-08-15 01:51:00,79.3,76.1,29.82,West,260,0.0,1.0,90,0.00,,,0.00,VWS V14.01,2013-08-15 07:51:00,
2013-08-15 01:56:00,79.4,76.2,29.82,West,263,0.0,1.0,90,0.00,,,0.00,VWS V14.01,2013-08-15 07:56:00,
2013-08-15 02:00:00,79.5,76.3,29.81,West,273,0.0,2.0,90,0.00,,,0.00,VWS V14.01,2013-08-15 08:00:00,
2013-08-15 02:01:00,79.5,76.3,29.81,WSW,252,0.0,2.0,90,0.00,,,0.00,VWS V14.01,2013-08-15 08:01:00,
2013-08-15 02:06:00,79.6,76.4,29.81,WSW,257,0.0,3.0,90,0.00,,,0.00,VWS V14.01,2013-08-15 08:06:00,
2013-08-15 02:11:00,79.6,76.4,29.81,West,280,1.0,3.0,90,0.00,,,0.00,VWS V14.01,2013-08-15 08:11:00,
2013-08-15 02:16:00,79.7,76.5,29.81,WSW,252,0.0,3.0,90,0.00,,,0.00,VWS V14.01,2013-08-15 08:16:00,
2013-08-15 02:21:00,79.7,76.5,29.81,West,260,0.0,3.0,90,0.00,,,0.00,VWS V14.01,2013-08-15 08:21:00,
2013-08-15 02:26:00,79.7,76.8,29.80,WNW,296,1.0,3.0,91,0.00,,,0.00,VWS V14.01,2013-08-15 08:26:00,
2013-08-15 02:30:00,79.8,76.6,29.80,WSW,252,0.0,4.0,90,0.00,,,0.00,VWS V14.01,2013-08-15 08:30:00,
2013-08-15 02:31:00,79.8,76.6,29.80,West,263,1.0,1.0,90,0.00,,,0.00,VWS V14.01,2013-08-15 08:31:00,
2013-08-15 02:36:00,79.8,76.6,29.80,WSW,250,0.0,2.0,90,0.00,,,0.00,VWS V14.01,2013-08-15 08:36:00,
2013-08-15 02:41:00,80.1,77.2,29.80,South,188,1.0,4.0,91,0.00,,,0.00,VWS V14.01,2013-08-15 08:41:00,
2013-08-15 02:46:00,80.3,77.1,29.80,SSW,205,3.0,4.0,90,0.00,,,0.00,VWS V14.01,2013-08-15 08:46:00,
2013-08-15 02:51:00,80.7,77.2,29.80,South,184,3.0,4.0,89,0.00,,,0.00,VWS V14.01,2013-08-15 08:51:00,
2013-08-15 02:56:00,80.8,76.9,29.80,South,188,4.0,5.0,88,0.00,,,0.00,VWS V14.01,2013-08-15 08:56:00,
2013-08-15 03:00:00,81.0,77.1,29.80,West,262,1.0,5.0,88,0.00,,,0.00,VWS V14.01,2013-08-15 09:00:00,
2013-08-15 03:01:00,81.0,77.1,29.80,WSW,245,0.0,2.0,88,0.00,,,0.00,VWS V14.01,2013-08-15 09:01:00,
2013-08-15 03:06:00,80.9,77.0,29.80,WSW,256,1.0,3.0,88,0.00,,,0.00,VWS V14.01,2013-08-15 09:06:00,
2013-08-15 03:30:00,80.2,77.0,29.80,WSW,248,0.0,3.0,90,0.00,,,0.00,VWS V14.01,2013-08-15 09:30:00,
2013-08-15 04:00:00,80.2,77.0,29.81,West,270,1.0,6.0,90,0.00,,,0.00,VWS V14.01,2013-08-15 10:00:00,
2013-08-15 04:30:00,79.8,76.9,29.81,West,270,1.0,4.0,91,0.00,,,0.00,VWS V14.01,2013-08-15 10:30:00,
2013-08-15 05:00:00,79.5,76.7,29.82,West,270,1.0,3.0,91,0.00,,,0.00,VWS V14.01,2013-08-15 11:00:00,
2013-08-15 05:30:00,79.3,76.4,29.83,West,270,0.0,2.0,91,0.00,,,0.00,VWS V14.01,2013-08-15 11:30:00,
2013-08-15 06:00:00,79.4,76.6,29.84,West,270,0.0,1.0,91,0.00,,,0.00,VWS V14.01,2013-08-15 12:00:00,
2013-08-15 06:30:00,79.8,76.9,29.86,WSW,248,1.0,3.0,91,0.00,,,0.00,VWS V14.01,2013-08-15 12:30:00,
2013-08-15 07:00:00,80.3,77.4,29.87,West,270,1.0,4.0,91,0.00,,,0.00,VWS V14.01,2013-08-15 13:00:00,
2013-08-15 07:30:00,81.8,77.9,29.87,WSW,248,2.0,6.0,88,0.00,,,0.00,VWS V14.01,2013-08-15 13:30:00,
2013-08-15 08:00:00,82.1,78.2,29.88,WSW,248,4.0,10.0,88,0.01,,,0.01,VWS V14.01,2013-08-15 14:00:00,
2013-08-15 08:30:00,80.8,76.9,29.89,WSW,248,4.0,10.0,88,0.08,,,0.08,VWS V14.01,2013-08-15 14:30:00,
2013-08-15 09:00:00,79.6,77.1,29.90,WNW,292,3.0,12.0,92,0.34,,,0.34,VWS V14.01,2013-08-15 15:00:00,
2013-08-15 09:30:00,81.4,77.8,29.90,WSW,248,2.0,7.0,89,0.33,,,0.34,VWS V14.01,2013-08-15 15:30:00,
2013-08-15 10:00:00,82.3,77.7,29.90,WSW,248,3.0,9.0,86,0.26,,,0.34,VWS V14.01,2013-08-15 16:00:00,
2013-08-15 10:30:00,82.3,77.7,29.88,WSW,248,3.0,10.0,86,0.00,,,0.34,VWS V14.01,2013-08-15 16:30:00,
2013-08-15 11:00:00,83.3,79.0,29.88,West,270,1.0,5.0,87,0.00,,,0.34,VWS V14.01,2013-08-15 17:00:00,
2013-08-15 11:30:00,84.3,78.9,29.87,NW,315,2.0,7.0,84,0.00,,,0.34,VWS V14.01,2013-08-15 17:30:00,
2013-08-15 12:00:00,83.8,78.1,29.86,WNW,292,2.0,7.0,83,0.00,,,0.34,VWS V14.01,2013-08-15 18:00:00,
2013-08-15 12:30:00,83.5,77.4,29.85,WNW,292,2.0,7.0,82,0.00,,,0.34,VWS V14.01,2013-08-15 18:30:00,
2013-08-15 13:00:00,83.5,78.5,29.84,West,270,2.0,8.0,85,0.00,,,0.34,VWS V14.01,2013-08-15 19:00:00,
2013-08-15 13:30:00,82.8,77.8,29.85,WNW,292,2.0,6.0,85,0.00,,,0.34,VWS V14.01,2013-08-15 19:30:00,
2013-08-15 14:00:00,82.5,77.5,29.84,West,270,1.0,6.0,85,0.00,,,0.34,VWS V14.01,2013-08-15 20:00:00,
2013-08-15 14:30:00,82.9,76.8,29.84,West,270,2.0,6.0,82,0.00,,,0.34,VWS V14.01,2013-08-15 20:30:00,
2013-08-15 15:00:00,83.1,77.8,29.83,West,270,1.0,4.0,84,0.00,,,0.34,VWS V14.01,2013-08-15 21:00:00,
2013-08-15 15:30:00,83.2,77.1,29.82,WNW,292,2.0,7.0,82,0.00,,,0.34,VWS V14.01,2013-08-15 21:30:00,
2013-08-15 16:00:00,83.1,77.0,29.83,WNW,292,2.0,7.0,82,0.00,,,0.34,VWS V14.01,2013-08-15 22:00:00,
2013-08-15 16:30:00,83.3,77.2,29.83,WNW,292,1.0,6.0,82,0.00,,,0.34,VWS V14.01,2013-08-15 22:30:00,
2013-08-15 17:00:00,82.8,77.1,29.83,NW,315,0.0,3.0,83,0.00,,,0.34,VWS V14.01,2013-08-15 23:00:00,
2013-08-15 17:30:00,82.8,77.5,29.83,NNW,338,0.0,1.0,84,0.00,,,0.34,VWS V14.01,2013-08-15 23:30:00,
2013-08-15 18:00:00,82.4,77.4,29.84,ENE,68,0.0,1.0,85,0.00,,,0.34,VWS V14.01,2013-08-16 00:00:00,
2013-08-15 18:30:00,81.7,77.5,29.85,ENE,68,0.0,1.0,87,0.00,,,0.34,VWS V14.01,2013-08-16 00:30:00,
2013-08-15 19:00:00,81.2,77.3,29.86,ENE,68,0.0,1.0,88,0.00,,,0.34,VWS V14.01,2013-08-16 01:00:00,
2013-08-15 19:30:00,80.8,77.3,29.86,ENE,68,0.0,1.0,89,0.00,,,0.34,VWS V14.01,2013-08-16 01:30:00,
2013-08-15 20:00:00,81.0,77.5,29.88,NE,45,0.0,3.0,89,0.00,,,0.34,VWS V14.01,2013-08-16 02:00:00,
2013-08-15 20:30:00,82.0,77.4,29.89,ENE,68,3.0,7.0,86,0.00,,,0.34,VWS V14.01,2013-08-16 02:30:00,
2013-08-15 21:00:00,82.0,77.1,29.88,ENE,68,3.0,7.0,85,0.00,,,0.34,VWS V14.01,2013-08-16 03:00:00,
2013-08-15 21:30:00,81.9,78.0,29.89,ENE,68,3.0,8.0,88,0.00,,,0.34,VWS V14.01,2013-08-16 03:30:00,
2013-08-15 22:00:00,81.7,77.8,29.90,ENE,68,2.0,5.0,88,0.00,,,0.34,VWS V14.01,2013-08-16 04:00:00,
2013-08-15 22:30:00,81.3,77.4,29.90,ENE,68,0.0,2.0,88,0.00,,,0.34,VWS V14.01,2013-08-16 04:30:00,
2013-08-15 23:00:00,80.6,77.4,29.89,NE,45,0.0,1.0,90,0.00,,,0.34,VWS V14.01,2013-08-16 05:00:00,
2013-08-15 23:30:00,80.6,77.4,29.88,NE,45,0.0,1.0,90,0.00,,,0.34,VWS V14.01,2013-08-16 05:30:00,